DateTimeUTC,F1_A11,F1_S11,BsB_S11,BsG_S11,BsR_S11,BbsB_S11,BbsG_S11,BbsR_S11,BaB_A11,BaG_A11,BaR_A11,Tu_S11,T_S11,Uu_S11,U_S11,P_S11,T1_A11
2021-10-08T11:00:00Z,00000200,21000000,,,,,,,0000.57,0000.23,0000.62,15.8,23.0,,00.0,0668.3,30.8
2021-10-08T11:01:00Z,00000200,21000000,,,,,,,0000.69,0000.52,0000.15,15.8,23.0,,00.0,0668.3,30.8
2021-10-08T11:02:00Z,00000200,21000000,,,,,,,0009.48,0009.49,0006.88,15.8,23.0,00.0,00.0,0668.2,30.8
2021-10-08T11:03:00Z,00000200,61000000,,,,,,,-003.08,-002.87,-002.20,15.8,23.0,00.3,00.2,0668.2,30.9
2021-10-08T11:04:00Z,00000200,41000000,0000.33,-000.15,0000.08,0000.21,0000.08,0000.24,-002.23,-002.43,-002.02,16.2,22.9,02.3,01.5,0669.1,30.9
2021-10-08T11:05:00Z,00000200,01000000,-000.27,-000.09,0000.27,-000.01,-000.15,-000.03,-001.53,-001.33,-000.51,16.3,22.9,01.5,01.0,0669.2,30.9
2021-10-08T11:06:00Z,00000200,01000000,-000.75,-000.32,-000.10,-000.04,0000.04,-000.01,-000.95,-000.87,-000.99,16.3,22.9,01.0,00.7,0669.2,30.9
2021-10-08T11:07:00Z,00000200,01000000,-000.28,0000.26,-000.09,0000.59,0000.38,-000.13,-000.51,-000.81,-000.14,16.4,22.9,00.6,00.4,0669.2,30.9
2021-10-08T11:08:00Z,00000200,01000000,-000.60,-000.32,-000.07,0000.06,0000.10,-000.03,-000.03,0000.11,-000.09,16.4,23.0,00.5,00.3,0669.2,30.9
2021-10-08T11:09:00Z,00000200,01000000,-000.38,0000.32,-000.18,0000.29,0000.35,-000.13,0000.10,-000.20,0000.07,16.5,23.0,00.5,00.3,0669.2,30.9
2021-10-08T11:10:00Z,00000200,01000000,-000.15,-000.11,-000.15,0000.66,0000.02,-000.10,-000.12,0000.00,-000.29,16.4,23.0,00.6,00.4,0669.2,30.9
2021-10-08T11:11:00Z,00000200,01000000,-000.45,-000.27,0000.32,-000.01,0000.40,0000.14,-000.26,-000.09,-000.31,16.4,22.9,00.5,00.3,0669.2,30.9
2021-10-08T11:12:00Z,00000200,01000000,0000.48,0000.18,0000.23,-000.06,0000.09,-000.12,0000.36,0000.26,0000.29,16.3,22.9,00.5,00.4,0669.1,30.9
2021-10-08T11:13:00Z,00000200,01000000,-000.18,0000.05,-000.38,-000.04,-000.16,-000.06,-000.05,0000.54,0000.53,16.3,22.9,00.5,00.3,0669.1,30.8
2021-10-08T11:14:00Z,00000200,01000000,-000.09,0000.01,-000.10,0000.24,0000.33,0000.14,0000.53,-000.13,0000.23,16.3,22.8,00.5,00.3,0669.1,30.8
2021-10-08T11:15:00Z,00000200,01000000,-000.31,0000.07,-000.10,-000.19,0000.22,0000.18,0000.37,0000.35,0000.09,16.4,22.9,00.6,00.4,0669.1,30.8
2021-10-08T11:16:00Z,00000200,01000000,-000.87,0000.06,0000.04,-000.45,0000.24,0000.14,-000.23,0000.00,-000.23,16.4,22.9,00.8,00.5,0669.1,30.8
2021-10-08T11:17:00Z,00000200,01000000,0000.25,0000.17,0000.04,0000.45,0000.06,-000.12,0000.04,-000.22,-000.10,16.4,22.9,00.6,00.4,0669.1,30.9
2021-10-08T11:18:00Z,00000200,01000000,-000.24,-000.00,-000.08,0000.40,0000.02,-000.16,-000.51,-000.21,-000.25,16.5,23.0,00.5,00.4,0669.2,30.9
2021-10-08T11:19:00Z,00000200,01000000,0000.25,-000.17,-000.02,-000.32,0000.15,0000.01,-000.58,-000.54,-000.19,16.5,23.0,00.5,00.3,0669.2,30.9
2021-10-08T11:20:00Z,00000200,01000000,-000.32,0000.21,-000.00,0000.25,0000.26,0000.10,0000.68,0000.61,0000.57,16.6,23.0,00.4,00.2,0669.2,30.9
2021-10-08T11:21:00Z,00000200,01000000,-000.08,0000.07,-000.03,-000.12,0000.01,0000.01,0000.19,0000.44,0000.02,16.6,23.0,00.4,00.3,0669.2,30.9
2021-10-08T11:22:00Z,00000200,01000000,-000.23,-000.06,-000.07,0000.09,0000.27,0000.16,0000.51,0000.16,0000.29,16.7,23.1,00.6,00.4,0669.2,30.9
2021-10-08T11:23:00Z,00000200,01000000,-000.12,0000.07,0000.11,0000.39,0000.03,0000.03,0000.05,0000.07,-000.06,16.8,23.1,00.7,00.4,0669.2,30.9
2021-10-08T11:24:00Z,00000200,01000000,0000.07,0000.32,-000.02,-000.07,0000.23,0000.11,-000.08,-000.05,-000.07,16.8,23.2,00.7,00.5,0669.2,30.9
2021-10-08T11:25:00Z,00000200,01000000,0000.05,0000.10,-000.04,-000.12,0000.13,-000.02,-000.09,-000.05,-000.21,16.8,23.1,00.8,00.5,0669.2,30.9
2021-10-08T11:26:00Z,00000200,01000000,-000.18,-000.02,-000.29,-000.02,0000.14,-000.01,-000.20,-000.55,-000.17,16.7,23.1,00.7,00.4,0669.2,30.9
2021-10-08T11:27:00Z,00000200,01000000,0000.09,0000.22,0000.06,-000.09,0000.09,0000.22,0000.01,0000.28,0000.23,16.7,23.1,00.6,00.4,0669.1,30.9
2021-10-08T11:28:00Z,00000200,01000000,0000.12,0000.15,0000.05,0000.21,-000.13,0000.04,0000.31,0000.15,0000.03,16.6,23.1,00.6,00.4,0669.2,30.9
2021-10-08T11:29:00Z,00000200,01000000,0000.23,0000.22,-000.22,0000.45,0000.35,-000.09,0000.26,0000.59,0000.64,16.7,23.1,00.8,00.6,0669.2,30.9
2021-10-08T11:30:00Z,00000200,01000000,0000.07,-000.11,-000.23,0000.05,-000.16,-000.04,0000.17,0000.14,-000.27,16.7,23.1,00.8,00.5,0669.2,30.9
2021-10-08T11:31:00Z,00000200,01000000,-000.27,0000.13,-000.31,0000.23,0000.03,0000.14,-000.15,-000.27,0000.33,16.7,23.1,00.9,00.6,0669.2,30.9
2021-10-08T11:32:00Z,00000200,01000000,0000.15,0000.04,-000.08,0000.30,0000.35,0000.14,0000.78,0000.65,0000.23,16.8,23.1,00.9,00.6,0669.2,30.9
2021-10-08T11:33:00Z,00000200,01000000,0000.68,-000.02,-000.16,0000.68,0000.18,0000.11,-000.07,-000.36,0000.19,16.8,23.1,00.9,00.6,0669.1,30.9
2021-10-08T11:34:00Z,00000200,01000000,-000.33,0000.19,-000.06,0000.40,0000.01,-000.04,0000.40,0000.71,-000.11,16.9,23.2,01.0,00.7,0669.1,30.9
2021-10-08T11:35:00Z,00000200,01000000,-000.12,0000.09,0000.17,-000.28,0000.06,0000.07,0000.44,0000.37,0000.57,16.9,23.2,01.2,00.8,0669.1,30.9
2021-10-08T11:36:00Z,00000200,01000000,0000.14,-000.09,-000.06,0000.17,-000.25,-000.03,0000.72,0000.81,0000.51,17.0,23.3,01.5,01.0,0669.1,30.9
2021-10-08T11:37:00Z,00000200,01000000,-000.50,0000.43,-000.16,0000.04,-000.19,-000.07,-000.46,-000.61,-000.52,17.0,23.3,01.5,01.0,0669.1,30.9
2021-10-08T11:38:00Z,00000200,01000000,-000.26,0000.18,-000.02,0000.04,-000.01,0000.12,-000.21,0000.07,-000.18,16.9,23.3,01.5,01.0,0669.1,30.9
2021-10-08T11:39:00Z,00000200,01000000,-001.18,0000.06,-000.08,0000.14,-000.06,0000.17,-000.45,-000.86,-000.54,16.9,23.2,01.3,00.9,0669.1,30.9
2021-10-08T11:40:00Z,00000200,01000000,-000.02,0000.08,0000.15,0000.26,0000.24,0000.22,-000.61,-000.46,-000.15,16.8,23.2,01.1,00.8,0669.2,30.9
2021-10-08T11:41:00Z,00000200,01000000,0000.24,-000.29,-000.33,0000.44,-000.31,-000.24,-000.11,-000.12,-000.01,16.8,23.2,00.9,00.6,0669.2,30.9
2021-10-08T11:42:00Z,00000200,01000000,0000.11,0000.09,-000.00,0000.45,-000.10,0000.51,-000.77,-000.70,-000.59,16.7,23.1,00.7,00.5,0669.2,30.9
2021-10-08T11:43:00Z,00000200,01000000,-000.09,-000.22,0000.08,0000.17,0000.36,0000.34,-000.15,-000.18,-000.18,16.7,23.1,00.5,00.4,0669.2,30.8
2021-10-08T11:44:00Z,00000200,01000000,0000.63,-000.04,0000.05,-000.12,0000.20,0000.57,0000.02,-000.06,-000.07,16.7,23.1,00.4,00.3,0669.2,30.8
2021-10-08T11:45:00Z,00000200,01000000,-000.44,0000.09,-000.17,0000.59,0000.05,-000.33,-000.32,-000.35,-000.12,16.7,23.1,00.4,00.2,0669.2,30.9
2021-10-08T11:46:00Z,00000200,01000000,0000.50,0000.06,0000.17,-000.09,0000.34,0000.06,-000.11,0000.04,0000.20,16.7,23.2,00.3,00.2,0669.2,30.9
2021-10-08T11:47:00Z,00000200,01000000,0000.85,-000.03,-000.11,0000.15,0000.12,0000.23,-000.14,0000.25,-000.23,16.8,23.2,00.3,00.2,0669.2,30.9
2021-10-08T11:48:00Z,00000200,01000000,0000.66,0000.14,-000.10,0000.14,-000.06,0000.16,-000.18,-000.31,-000.18,16.9,23.2,00.2,00.1,0669.3,30.9
2021-10-08T11:49:00Z,00000200,01000000,0000.21,0000.00,0000.02,-000.01,0000.08,-000.01,-000.09,-000.58,0000.04,16.9,23.2,00.2,00.1,0669.2,30.9
2021-10-08T11:50:00Z,00000200,01000000,-000.19,0000.19,-000.28,-000.16,-000.11,-000.05,-001.91,-001.51,-001.67,16.9,23.3,00.0,00.0,0669.3,30.9
2021-10-08T11:51:00Z,00000200,01000000,-000.13,0000.36,-000.40,0000.39,0000.38,0000.17,0000.42,0000.40,0000.64,16.8,23.2,,00.0,0669.3,30.9
2021-10-08T11:52:00Z,00000200,01000000,0000.13,0000.12,-000.19,0000.46,0000.01,0000.09,-000.07,-000.10,0000.06,16.8,23.2,00.0,00.0,0669.2,30.9
2021-10-08T11:53:00Z,00000200,01000000,-000.15,0000.12,-000.10,0000.23,-000.34,0000.11,0000.44,0000.11,-000.44,16.7,23.2,00.0,00.0,0669.2,30.9
2021-10-08T11:54:00Z,00000200,01000000,0000.11,-000.15,-000.28,0000.06,0000.14,0000.04,0000.19,0000.31,0000.48,16.7,23.2,00.1,00.0,0669.2,30.9
2021-10-08T11:55:00Z,00000200,01000000,0000.07,-000.27,-000.29,0000.37,0000.04,-000.04,0000.31,0000.32,0000.36,16.6,23.1,00.1,00.1,0669.2,30.8
2021-10-08T11:56:00Z,00000200,01000000,-000.06,0000.39,-000.31,0000.71,-000.05,0000.12,-000.19,0000.18,0000.00,16.6,23.1,00.1,00.1,0669.2,30.8
2021-10-08T11:57:00Z,00000200,41000000,,,,,,,0001.39,0001.12,0000.83,16.6,23.1,00.6,00.4,0669.2,30.8
2021-10-08T11:58:00Z,00000200,61000000,,,,,,,-000.23,-000.34,0000.32,16.2,23.2,00.4,00.2,0668.2,30.8
2021-10-08T11:59:00Z,00000200,21000000,,,,,,,0000.55,0000.85,0000.07,16.2,23.3,00.3,00.2,0668.2,30.8
